When you browse on this site, cookies collect data to enhance your experience and personalize the content and advertising you see.
Visit our Privacy Policy to learn more. By continuing to use the site, you agree to this use of cookies and data.
  • în România
  • Lista ţărilor
  • Pe 7 zile
  • Temperatura apei
  • Hartă satelitară
  • Meteo pe hartă
  • Widget-uri
  • user-avatar
    Intrare

    Meteo pe oră la Nyiregyhaza

    Astăzi, 18 Ianuarie, Vineri

    Timp Temperatura Precipitaţii Vânt Presiune Umiditate
    00:00 +1°C° 0.1 mm 5 m/s 748 mmHg 91%
    01:00 0°C° 0 mm 4 m/s 748 mmHg 94%
    02:00 0°C° 0 mm 5 m/s 748 mmHg 94%
    03:00 0°C° 0 mm 5 m/s 748 mmHg 94%
    04:00 0°C° 0 mm 5 m/s 747 mmHg 94%
    05:00 0°C° 0 mm 5 m/s 748 mmHg 95%
    06:00 0°C° 0 mm 5 m/s 748 mmHg 96%
    07:00 0°C° 0 mm 5 m/s 748 mmHg 97%
    08:00 +1°C° 0 mm 5 m/s 748 mmHg 97%
    09:00 +1°C° 0 mm 4 m/s 748 mmHg 98%
    10:00 +1°C° 0 mm 4 m/s 749 mmHg 98%
    11:00 +2°C° 0 mm 3 m/s 749 mmHg 96%
    12:00 +3°C° 0 mm 3 m/s 749 mmHg 95%
    13:00 +3°C° 0 mm 3 m/s 750 mmHg 94%
    14:00 +2°C° 0 mm 3 m/s 750 mmHg 92%
    15:00 +3°C° 0 mm 2 m/s 750 mmHg 89%
    16:00 +2°C° 0 mm 2 m/s 751 mmHg 87%
    17:00 +1°C° 0.2 mm 3 m/s 751 mmHg 86%
    18:00 0°C° 0.2 mm 3 m/s 752 mmHg 85%
    19:00 -1°C° 0.2 mm 4 m/s 752 mmHg 84%
    20:00 -1°C° 0.1 mm 4 m/s 753 mmHg 83%
    21:00 -1°C° 0.1 mm 3 m/s 754 mmHg 83%
    22:00 -1°C° 0.1 mm 3 m/s 754 mmHg 82%
    23:00 -1°C° 0 mm 3 m/s 755 mmHg 82%

    Mâine, 19 Ianuarie, Sâmbătă

    Timp Temperatura Precipitaţii Vânt Presiune Umiditate
    00:00 -2°C° 0 mm 3 m/s 755 mmHg 83%
    01:00 -4°C° 0 mm 3 m/s 756 mmHg 83%
    02:00 -4°C° 0 mm 3 m/s 756 mmHg 84%
    03:00 -4°C° 0 mm 3 m/s 756 mmHg 85%
    04:00 -4°C° 0 mm 3 m/s 756 mmHg 85%
    05:00 -4°C° 0 mm 3 m/s 757 mmHg 86%
    06:00 -5°C° 0 mm 3 m/s 757 mmHg 86%
    07:00 -5°C° 0 mm 3 m/s 757 mmHg 86%
    08:00 -4°C° 0 mm 3 m/s 757 mmHg 83%
    09:00 -4°C° 0 mm 3 m/s 757 mmHg 80%
    10:00 -2°C° 0 mm 3 m/s 757 mmHg 78%
    11:00 -2°C° 0 mm 3 m/s 757 mmHg 76%
    12:00 -1°C° 0 mm 3 m/s 756 mmHg 75%
    13:00 -1°C° 0 mm 3 m/s 756 mmHg 73%
    14:00 -2°C° 0 mm 2 m/s 756 mmHg 76%
    15:00 -2°C° 0 mm 2 m/s 756 mmHg 80%
    16:00 -3°C° 0 mm 2 m/s 756 mmHg 83%
    17:00 -3°C° 0 mm 2 m/s 756 mmHg 82%
    18:00 -3°C° 0 mm 2 m/s 756 mmHg 81%
    19:00 -3°C° 0 mm 2 m/s 756 mmHg 81%
    20:00 -4°C° 0 mm 3 m/s 755 mmHg 80%
    21:00 -4°C° 0 mm 3 m/s 755 mmHg 80%
    22:00 -4°C° 0 mm 3 m/s 755 mmHg 79%
    23:00 -4°C° 0 mm 3 m/s 755 mmHg 78%

    Poimâine, 20 Ianuarie, Duminică

    Timp Temperatura Precipitaţii Vânt Presiune Umiditate
    00:00 -4°C° 0 mm 3 m/s 754 mmHg 78%
    01:00 -4°C° 0 mm 3 m/s 754 mmHg 77%
    02:00 -4°C° 0.1 mm 3 m/s 754 mmHg 79%
    03:00 -4°C° 0.1 mm 3 m/s 753 mmHg 80%
    04:00 -4°C° 0.1 mm 3 m/s 753 mmHg 82%
    05:00 -4°C° 0.1 mm 3 m/s 753 mmHg 84%
    06:00 -4°C° 0.1 mm 3 m/s 752 mmHg 86%
    07:00 -4°C° 0.1 mm 3 m/s 752 mmHg 89%
    08:00 -4°C° 0.2 mm 3 m/s 752 mmHg 90%
    09:00 -2°C° 0.2 mm 3 m/s 752 mmHg 91%
    10:00 -2°C° 0.2 mm 2 m/s 752 mmHg 92%
    11:00 -2°C° 0.7 mm 2 m/s 752 mmHg 93%
    12:00 -2°C° 0.7 mm 2 m/s 751 mmHg 94%
    13:00 -1°C° 0.7 mm 2 m/s 751 mmHg 95%
    14:00 +1°C° 0.4 mm 1 m/s 751 mmHg 96%
    15:00 +1°C° 0.4 mm 1 m/s 751 mmHg 96%
    16:00 +1°C° 0.4 mm 1 m/s 751 mmHg 97%
    17:00 0°C° 0.2 mm 1 m/s 751 mmHg 96%
    18:00 0°C° 0.2 mm 1 m/s 752 mmHg 96%
    19:00 0°C° 0.2 mm 1 m/s 752 mmHg 96%
    20:00 -2°C° 0.1 mm 2 m/s 752 mmHg 95%
    21:00 -2°C° 0.1 mm 2 m/s 753 mmHg 94%
    22:00 -2°C° 0.1 mm 2 m/s 753 mmHg 93%
    23:00 -3°C° 0 mm 2 m/s 753 mmHg 91%

    21 Ianuarie, Luni

    Timp Temperatura Precipitaţii Vânt Presiune Umiditate
    00:00 -3°C° 0 mm 2 m/s 754 mmHg 89%
    01:00 -5°C° 0 mm 3 m/s 754 mmHg 87%
    02:00 -5°C° 0 mm 3 m/s 754 mmHg 86%
    03:00 -5°C° 0 mm 3 m/s 754 mmHg 84%
    04:00 -6°C° 0 mm 3 m/s 754 mmHg 83%
    05:00 -6°C° 0 mm 3 m/s 755 mmHg 83%
    06:00 -7°C° 0 mm 4 m/s 756 mmHg 83%
    07:00 -7°C° 0 mm 4 m/s 756 mmHg 83%
    08:00 -7°C° 0 mm 4 m/s 756 mmHg 81%
    09:00 -6°C° 0 mm 5 m/s 757 mmHg 79%
    10:00 -5°C° 0 mm 5 m/s 757 mmHg 78%
    11:00 -5°C° 0 mm 5 m/s 757 mmHg 78%
    12:00 -4°C° 0 mm 5 m/s 757 mmHg 78%
    13:00 -3°C° 0 mm 4 m/s 757 mmHg 79%
    14:00 -3°C° 0 mm 4 m/s 757 mmHg 81%
    15:00 -4°C° 0 mm 3 m/s 757 mmHg 84%
    16:00 -3°C° 0 mm 2 m/s 757 mmHg 86%
    17:00 -4°C° 0 mm 2 m/s 758 mmHg 87%
    18:00 -4°C° 0 mm 2 m/s 758 mmHg 87%
    19:00 -5°C° 0 mm 2 m/s 758 mmHg 87%
    20:00 -5°C° 0 mm 2 m/s 758 mmHg 87%
    21:00 -5°C° 0 mm 2 m/s 758 mmHg 87%
    22:00 -5°C° 0 mm 2 m/s 759 mmHg 87%
    23:00 -6°C° 0 mm 2 m/s 758 mmHg 87%

    22 Ianuarie, Marţi

    Timp Temperatura Precipitaţii Vânt Presiune Umiditate
    00:00 -4°C° 0 mm 1 m/s 758 mmHg 88%
    01:00 -4°C° 0 mm 1 m/s 758 mmHg 88%
    02:00 -4°C° 0 mm 1 m/s 758 mmHg 89%
    03:00 -6°C° 0 mm 1 m/s 757 mmHg 89%
    04:00 -6°C° 0 mm 1 m/s 757 mmHg 90%
    05:00 -6°C° 0 mm 1 m/s 757 mmHg 91%
    06:00 -6°C° 0 mm 1 m/s 757 mmHg 92%
    07:00 -6°C° 0 mm 1 m/s 756 mmHg 93%
    08:00 -4°C° 0 mm 1 m/s 756 mmHg 91%
    09:00 -3°C° 0 mm 1 m/s 756 mmHg 90%
    10:00 -3°C° 0 mm 1 m/s 755 mmHg 89%
    11:00 -2°C° 0 mm 1 m/s 755 mmHg 88%
    12:00 -1°C° 0 mm 1 m/s 754 mmHg 87%
    13:00 -1°C° 0 mm 1 m/s 753 mmHg 85%
    14:00 -3°C° 0 mm 2 m/s 752 mmHg 87%
    15:00 -3°C° 0 mm 2 m/s 752 mmHg 89%
    16:00 -4°C° 0 mm 2 m/s 751 mmHg 91%
    17:00 -4°C° 0 mm 2 m/s 750 mmHg 92%
    18:00 -4°C° 0 mm 2 m/s 750 mmHg 93%
    19:00 -5°C° 0 mm 2 m/s 749 mmHg 94%
    20:00 -6°C° 0 mm 3 m/s 749 mmHg 94%
    21:00 -6°C° 0 mm 3 m/s 748 mmHg 93%
    22:00 -6°C° 0 mm 3 m/s 748 mmHg 93%
    23:00 -6°C° 0 mm 3 m/s 747 mmHg 92%

    23 Ianuarie, Miercuri

    Timp Temperatura Precipitaţii Vânt Presiune Umiditate
    00:00 -6°C° 0 mm 3 m/s 746 mmHg 90%
    01:00 -5°C° 0 mm 3 m/s 745 mmHg 88%
    02:00 -5°C° 0.1 mm 3 m/s 744 mmHg 88%
    03:00 -5°C° 0.1 mm 3 m/s 743 mmHg 88%
    04:00 -5°C° 0.1 mm 3 m/s 742 mmHg 88%
    05:00 -5°C° 0.1 mm 3 m/s 742 mmHg 89%
    06:00 -4°C° 0.1 mm 3 m/s 741 mmHg 89%
    07:00 -4°C° 0.1 mm 3 m/s 740 mmHg 89%
    08:00 -4°C° 0.2 mm 3 m/s 740 mmHg 90%
    09:00 -2°C° 0.2 mm 3 m/s 739 mmHg 91%
    10:00 -1°C° 0.2 mm 3 m/s 739 mmHg 91%
    11:00 -1°C° 0.3 mm 3 m/s 738 mmHg 93%
    12:00 -1°C° 0.3 mm 3 m/s 737 mmHg 95%
    13:00 0°C° 0.3 mm 3 m/s 736 mmHg 96%
    14:00 0°C° 0.3 mm 3 m/s 736 mmHg 95%
    15:00 0°C° 0.3 mm 3 m/s 735 mmHg 95%
    16:00 0°C° 0.3 mm 3 m/s 734 mmHg 94%
    17:00 0°C° 0.2 mm 3 m/s 734 mmHg 94%
    18:00 0°C° 0.2 mm 3 m/s 734 mmHg 94%
    19:00 0°C° 0.2 mm 3 m/s 733 mmHg 93%
    20:00 +1°C° 0.4 mm 3 m/s 733 mmHg 93%
    21:00 +1°C° 0.4 mm 3 m/s 733 mmHg 93%
    22:00 +1°C° 0.4 mm 3 m/s 733 mmHg 93%
    23:00 +1°C° 0.2 mm 3 m/s 733 mmHg 93%
    Arată mai mult